Location: Orange Harbor Mobile Home Park
(26.6923°N, 81.7937°W)
Time: 08:08:13
(UTC+00:00)

Okean 2 Rocket - Pass Details

Date: 19 September 2020
Orbit: 616 x 642 km, 82.5° (Epoch: 30 October)

Event Time Altitude Azimuth Distance (km) Brightness Sun altitude
Rises 00:26:39 0° 173° (S) 2,932 6.4 -14.0°
Reaches altitude 10° 00:28:56 10° 168° (SSE) 2,025 5.5 -14.5°
Maximum altitude 00:33:17 50° 93° (E) 816 3.2 -15.5°
Drops below altitude 10° 00:37:38 10° 18° (NNE) 2,027 5.6 -16.4°
Sets 00:39:55 0° 13° (NNE) 2,934 6.5 -16.9°
